COSMOS 970 DEB

Satellite information

Favourite Embed

Satellite Type and Status

DEBRISIN ORBIT

Key statistics

Satellite COSMOS 970 DEB at a glance.

Uptime

17531

Days in orbit

Revolutions

≈ 13.3

Per day

Orbit

LEO

Low Earth Orbit

Inclination

65.8

Latest

Satellite identification and parameters

Extended collection of information and parameters for COSMOS 970 DEB.

Object identification

Identified? True

Debris? True

Object name: COSMOS 970 DEB

International designator: 1977-121H

Object number (NORAD): 10566

Object ID (CCSDS): 10566

Country: COMMONWEALTH OF INDEPENDENT STATES (CIS)

Current information (Y/N): Y

RCS size: SMALL

Orbital parameters

Period: 108.562 minutes

Inclination: 65.7721 deg

SMA: 7538.397 km

Apoapsis: 1469.883 km

Periapsis: 850.641 km

RAAN: 287.2917 deg

Eccentricy: 0.0410725

Argument of periapsis: 335.7601 deg

Mean anomaly: 22.4582 deg

Mean motion: 13.26429804 rev/day

Mean motion (dot): 0.00002702 rev/day2

B* drag term: 0.003967118 1/REarth

Two-line elements (TLE)

Creation date: Dec. 20, 2025, 3:40 a.m.

Reference frame: TEME

Reference center: EARTH

Epoch: Dec. 19, 2025, 8:59 p.m. UTC

TLE line 0: 0 COSMOS 970 DEB

TLE line 1: 1 10566U 77121H 25353.87483226 .00002702 00000-0 39671-2 0 9993

TLE line 2: 2 10566 65.7721 287.2917 0410725 335.7601 22.4582 13.26429804305187

Live tracking on map

Real-time ground track for satellite COSMOS 970 DEB.

In-orbit conjunctions

A list of the most updated potential collisions computed for object COSMOS 970 DEB.

Target Orbit TCA Probability of collision Miss distance Type
COSMOS 1231 LEO 2025-08-27 12:37:01 0.01138235 82.0 (m) PAYLOAD

Associated space launch

Second generation ASAT satellite

COSMOS 970 DEB was lifted into orbit during the mission ‘Tsiklon-2 | IS-A 8’, on board a Tsiklon-2 space rocket.

The launch took place on Dec. 21, 1977, 10:35 a.m. from 90.

For more information about the launch, click the button.

Launch to space Tsiklon-2 | IS-A 8
Tsiklon-2 | IS-A 8

Agency: N/A

Status: Launch Successful

Launch date: Dec. 21, 1977, 10:35 a.m. UTC

Rocket: Tsiklon-2

Launch pad: 90

Location: Baikonur Cosmodrome, Republic of Kazakhstan

...

Latest news about this satellite

There are no fresh news available about this satellite. Check back as we update our databases every day.


Newsletter sign-up

Weekly statistics, charts and insights to help you stay on top of the space industry.